Starlink 34091

operational
NORAD ID: 63808 Int'l Des: 2025-092 Owner: SPXS Country: US Constellation: starlink
LEOCIRCULAR

关于 Starlink 34091

正在加载描述...

实时位置

正在加载3D地球...

即将过境

高度历史

Altitude vs Time

uPlot chart will show altitude changes over time

两行轨道根数

1 63808U 25092E 25303.70371209 .00043995 00000-0 15970-2 0 9999
2 63808 42.9990 186.7526 0002364 296.2141 63.8467 15.27614366 28785
Epoch: Oct 30, 2025 • Age: 22 hours

当前状态

高度 483.3 km
速度 7.63 km/s
星下点 28.21°N, 49.45°W
发射日期 May 4, 2025
运行时间 0.4 years
类型 internet

技术详情

分类 Payload
质量 575.00 kg
干质量 530.00 kg
总质量 575.00 kg
长度 0.30 m
直径 4.10 m
跨度 29.00 m
形状 Box + pan
制造商 SPXS
平台类型 Starlink V2MO
阶段状态 In Orbit
所有者/国家 SPXS/US

大型星座

Loading constellations...